Regional Weather Roundup
Issued by NWS

Home | Current Version | Previous Version | Text Only | Print | Product List | Glossary On
Versions: 1 2 3 4 5 6 7 8 9 10 11 12 13 14 15 16 17 18 19 20 21 22 23 24 25 26 27 28 29 30 31 32 33 34 35 36 37 38 39 40 41 42 43 44 45 46 47 48 49 50
000
ASUS44 KOUN 171510
RWROK

WEATHER ROUNDUP FOR OKLAHOMA
NATIONAL WEATHER SERVICE NORMAN OK
1000 AM CDT TUE OCT 17 2017

NOTE: "FAIR" INDICATES FEW OR NO CLOUDS BELOW 12,000 FEET WITH NO
      SIGNIFICANT WEATHER AND/OR OBSTRUCTIONS TO VISIBILITY.

OKZ001>007-009>012-014-015-017-171600-
NORTHWEST OKLAHOMA AND THE PANHANDLE

CITY           SKY/WX    TMP DP  RH WIND       PRES   REMARKS
GAGE           SUNNY     60  37  42 S12       30.20R
GUYMON         SUNNY     46  40  79 CALM      30.16S
ENID/WOODRING  SUNNY     55  46  71 S9        30.22S
$$

OKZ016-021>023-033>039-044-045-171600-
SOUTHWEST OKLAHOMA

CITY           SKY/WX    TMP DP  RH WIND       PRES   REMARKS
LAWTON/REGL    SUNNY     56  47  71 S3        30.29R
LAWTON/FT SILL SUNNY     56  46  70 S8        30.27R
FREDERICK      SUNNY     57  44  62 S8        30.25R
CLINTON        SUNNY     56  40  55 S18       30.24R
HOBART         SUNNY     59  43  55 S15       30.25S
ALTUS AFB      SUNNY     55  43  63 S9        30.25R
$$

OKZ018>020-024>031-171600-
CENTRAL OKLAHOMA

CITY           SKY/WX    TMP DP  RH WIND       PRES   REMARKS
OKLAHOMA CITY  SUNNY     55  45  68 S9        30.27R
OKC/WILEY POST SUNNY     60  42  51 S17       30.26R
OKC/TINKER AFB SUNNY     56  42  61 S14       30.27R
STILLWATER     SUNNY     58  44  60 S10       30.26R
GUTHRIE        SUNNY     60  43  53 S10       30.26R
$$

OKZ008-013-054>072-171600-
NORTHEAST OKLAHOMA

CITY           SKY/WX    TMP DP  RH WIND       PRES   REMARKS
TULSA          MOSUNNY   57  45  64 S15       30.27F
TULSA/JONES    SUNNY     56  46  69 S5        30.30R
PONCA CITY     SUNNY     60  41  49 VRB7      30.24R
BARTLESVILLE   SUNNY     55  47  74 SE6       30.29R
MUSKOGEE       SUNNY     56  48  74 SE9       30.34R
$$

OKZ032-040>043-046>053-073>077-171600-
SOUTH CENTRAL/SOUTHEAST OKLAHOMA

CITY           SKY/WX    TMP DP  RH WIND       PRES   REMARKS
ARDMORE/DWNTWN SUNNY     59  43  55 SW6G16    30.31R
MCALESTER      MOSUNNY   59  44  57 S8        30.32R
$$





USA.gov is the U.S. government's official web portal to all federal, state and local government web resources and services.